RAJ401 WADL-WADD

Flight info

Callsign RAJ401
Flight time 0h 57m
Altitude 30000
Route AGUNG BLI
Aircraft A400/M-SDFGHIRWY/EB2

Departure

Time 2026-05-04 00:09
Airport Lombok International Airport (WADL)

Arrival

Time 2026-05-04 01:06
Airport Denpasar I Gusti Ngurah Rai International Airport (WADD)
Time Latitude Longitude Altitude Speed Heading
2026-05-04 00:09 -8.63334 116.07803 8105 ft 294 kts 274°
2026-05-04 00:09 -8.63192 116.05721 8773 ft 298 kts 274°
2026-05-04 00:09 -8.63015 116.03611 9441 ft 303 kts 276°
2026-05-04 00:09 -8.62771 116.01480 9844 ft 307 kts 277°
2026-05-04 00:10 -8.62469 115.99364 9938 ft 308 kts 279°
2026-05-04 00:10 -8.62119 115.97232 9947 ft 307 kts 280°
2026-05-04 00:10 -8.61742 115.95092 9944 ft 307 kts 280°
2026-05-04 00:10 -8.61366 115.92992 9941 ft 307 kts 280°
2026-05-04 00:11 -8.60991 115.90866 9935 ft 307 kts 280°
2026-05-04 00:11 -8.60745 115.89459 9938 ft 307 kts 280°
2026-05-04 00:11 -8.60366 115.87326 9939 ft 307 kts 281°
2026-05-04 00:11 -8.59851 115.84513 9934 ft 307 kts 281°
2026-05-04 00:12 -8.59462 115.82397 9934 ft 307 kts 281°
2026-05-04 00:12 -8.59201 115.80966 9933 ft 307 kts 280°
2026-05-04 00:12 -8.58821 115.78867 9932 ft 307 kts 280°
2026-05-04 00:12 -8.58438 115.76734 9920 ft 307 kts 280°
2026-05-04 00:13 -8.58058 115.74611 9921 ft 307 kts 280°
2026-05-04 00:13 -8.57934 115.72458 9918 ft 306 kts 263°
2026-05-04 00:13 -8.58543 115.70442 9917 ft 304 kts 238°
2026-05-04 00:13 -8.59789 115.68721 9922 ft 303 kts 227°
2026-05-04 00:14 -8.61276 115.67200 9918 ft 303 kts 221°
2026-05-04 00:14 -8.62871 115.65812 9920 ft 303 kts 218°
2026-05-04 00:14 -8.64516 115.64476 9919 ft 303 kts 217°
2026-05-04 00:14 -8.66170 115.63148 9919 ft 303 kts 217°
2026-05-04 00:15 -8.67791 115.61830 9920 ft 303 kts 217°
2026-05-04 00:15 -8.69424 115.60474 9917 ft 303 kts 218°
2026-05-04 00:15 -8.71045 115.59105 9916 ft 303 kts 218°
2026-05-04 00:15 -8.72663 115.57721 9931 ft 303 kts 219°
2026-05-04 00:16 -8.74272 115.56335 9940 ft 304 kts 219°
2026-05-04 00:16 -8.75861 115.54963 9938 ft 304 kts 219°
2026-05-04 00:16 -8.77465 115.53576 9942 ft 304 kts 219°
2026-05-04 00:16 -8.79080 115.52179 9932 ft 303 kts 219°
2026-05-04 00:17 -8.80689 115.50790 9936 ft 304 kts 219°
2026-05-04 00:17 -8.82297 115.49402 9932 ft 304 kts 219°
2026-05-04 00:17 -8.83908 115.48012 9933 ft 304 kts 219°
2026-05-04 00:17 -8.85506 115.46634 9939 ft 304 kts 219°
2026-05-04 00:18 -8.87121 115.45240 9936 ft 304 kts 219°
2026-05-04 00:18 -8.88713 115.43866 9943 ft 304 kts 218°
2026-05-04 00:18 -8.90327 115.42474 9940 ft 304 kts 218°
2026-05-04 00:18 -8.91945 115.41078 9941 ft 304 kts 219°
2026-05-04 00:19 -8.93535 115.39650 9943 ft 305 kts 226°
2026-05-04 00:19 -8.94736 115.37878 9937 ft 307 kts 245°
2026-05-04 00:19 -8.95302 115.35813 9944 ft 309 kts 260°
2026-05-04 00:19 -8.95531 115.33648 9941 ft 309 kts 267°
2026-05-04 00:20 -8.95568 115.31489 9935 ft 309 kts 270°
2026-05-04 00:20 -8.95514 115.29302 9933 ft 310 kts 272°
2026-05-04 00:20 -8.95433 115.27138 9946 ft 310 kts 272°
2026-05-04 00:20 -8.95356 115.24939 9934 ft 310 kts 271°
2026-05-04 00:21 -8.95297 115.22773 9936 ft 309 kts 271°
2026-05-04 00:21 -8.95254 115.20589 9947 ft 309 kts 271°
2026-05-04 00:21 -8.95225 115.18428 9937 ft 309 kts 270°
2026-05-04 00:21 -8.95203 115.16243 9946 ft 309 kts 270°
2026-05-04 00:22 -8.95185 115.14083 9937 ft 310 kts 270°
2026-05-04 00:22 -8.95168 115.11906 9860 ft 313 kts 270°
2026-05-04 00:22 -8.95151 115.09700 9612 ft 310 kts 270°
2026-05-04 00:22 -8.95133 115.07539 9363 ft 308 kts 270°
2026-05-04 00:23 -8.95114 115.05366 9111 ft 306 kts 270°
2026-05-04 00:23 -8.95095 115.03225 8866 ft 305 kts 270°
2026-05-04 00:23 -8.95075 115.01073 8628 ft 304 kts 270°
2026-05-04 00:23 -8.95055 114.98955 8378 ft 302 kts 270°
2026-05-04 00:24 -8.95035 114.96816 8134 ft 301 kts 270°
2026-05-04 00:24 -8.95015 114.94718 7899 ft 300 kts 270°
2026-05-04 00:24 -8.94995 114.92593 7669 ft 299 kts 270°
2026-05-04 00:24 -8.94975 114.90522 7430 ft 298 kts 270°
2026-05-04 00:25 -8.94955 114.88434 7192 ft 297 kts 270°
2026-05-04 00:25 -8.94789 114.86338 6955 ft 295 kts 283°
2026-05-04 00:25 -8.94009 114.84441 6726 ft 293 kts 305°
2026-05-04 00:25 -8.92559 114.83046 6485 ft 288 kts 332°
2026-05-04 00:26 -8.90686 114.82482 6257 ft 282 kts
2026-05-04 00:26 -8.88796 114.82846 6015 ft 276 kts 26°
2026-05-04 00:26 -8.87103 114.83766 5777 ft 276 kts 33°
2026-05-04 00:26 -8.85469 114.84796 5530 ft 275 kts 34°
2026-05-04 00:27 -8.83854 114.85828 5290 ft 274 kts 34°
2026-05-04 00:27 -8.82252 114.86842 5118 ft 273 kts 34°
2026-05-04 00:27 -8.80645 114.87850 4941 ft 266 kts 34°
2026-05-04 00:27 -8.79091 114.88818 4565 ft 258 kts 34°
2026-05-04 00:28 -8.77591 114.89751 4138 ft 255 kts 34°
2026-05-04 00:28 -8.76181 114.90813 3702 ft 250 kts 53°
2026-05-04 00:28 -8.75508 114.92372 3548 ft 242 kts 83°
2026-05-04 00:28 -8.75409 114.94046 3405 ft 236 kts 91°
2026-05-04 00:29 -8.75427 114.95673 3143 ft 228 kts 92°
2026-05-04 00:29 -8.75458 114.97268 2869 ft 225 kts 92°
2026-05-04 00:29 -8.75476 114.98847 2616 ft 223 kts 90°
2026-05-04 00:29 -8.75447 115.00421 2352 ft 225 kts 90°
2026-05-04 00:30 -8.75399 115.01976 1940 ft 223 kts 89°
2026-05-04 00:30 -8.75343 115.03527 1741 ft 214 kts 89°
2026-05-04 00:30 -8.75289 115.04927 1738 ft 188 kts 89°
2026-05-04 00:30 -8.75242 115.06149 1749 ft 166 kts 89°
2026-05-04 00:31 -8.75199 115.07287 1738 ft 159 kts 89°
2026-05-04 00:31 -8.75158 115.08401 1731 ft 158 kts 89°
2026-05-04 00:31 -8.75117 115.09505 1716 ft 156 kts 90°
2026-05-04 00:31 -8.75073 115.10605 1652 ft 157 kts 89°
2026-05-04 00:32 -8.75005 115.11690 1422 ft 156 kts 87°
2026-05-04 00:32 -8.74908 115.12780 1033 ft 154 kts 86°
2026-05-04 00:32 -8.74866 115.13867 605 ft 156 kts 90°
2026-05-04 00:32 -8.74933 115.14945 213 ft 155 kts 88°
2026-05-04 00:33 -8.74867 115.16028 88 ft 153 kts 81°
2026-05-04 00:33 -8.74857 115.18151 366 ft 150 kts 89°
2026-05-04 00:33 -8.74834 115.19193 858 ft 146 kts 87°
2026-05-04 00:34 -8.74752 115.20200 1353 ft 141 kts 87°
2026-05-04 00:34 -8.74619 115.21156 1861 ft 142 kts 83°
2026-05-04 00:34 -8.74716 115.22202 2339 ft 160 kts 112°
2026-05-04 00:34 -8.75485 115.23057 2842 ft 177 kts 156°
2026-05-04 00:35 -8.76733 115.22972 3364 ft 195 kts 206°
2026-05-04 00:35 -8.77949 115.22199 3729 ft 216 kts 204°
2026-05-04 00:35 -8.79410 115.21880 3847 ft 222 kts 172°
2026-05-04 00:35 -8.80842 115.22414 3673 ft 220 kts 139°
2026-05-04 00:36 -8.81711 115.23651 3424 ft 216 kts 106°
2026-05-04 00:36 -8.81944 115.25147 3196 ft 218 kts 95°
2026-05-04 00:36 -8.82021 115.26676 3035 ft 217 kts 93°
2026-05-04 00:36 -8.82082 115.28211 3023 ft 218 kts 93°
2026-05-04 00:37 -8.82140 115.29718 3021 ft 218 kts 92°
2026-05-04 00:37 -8.81994 115.31238 3021 ft 219 kts 76°
2026-05-04 00:37 -8.81336 115.32625 3020 ft 221 kts 52°
2026-05-04 00:37 -8.80090 115.33536 3017 ft 226 kts 20°
2026-05-04 00:38 -8.78545 115.33599 3021 ft 231 kts 345°
2026-05-04 00:38 -8.77187 115.32714 3022 ft 234 kts 308°
2026-05-04 00:38 -8.76569 115.31236 3021 ft 235 kts 277°
2026-05-04 00:38 -8.76454 115.29575 3023 ft 237 kts 270°
2026-05-04 00:39 -8.76441 115.27907 3022 ft 238 kts 269°
2026-05-04 00:39 -8.76430 115.26230 3020 ft 238 kts 270°
2026-05-04 00:39 -8.76406 115.24551 3018 ft 239 kts 270°
2026-05-04 00:39 -8.76372 115.22867 3021 ft 239 kts 270°
2026-05-04 00:40 -8.76332 115.21206 3022 ft 239 kts 270°
2026-05-04 00:40 -8.76289 115.19519 3024 ft 240 kts 270°
2026-05-04 00:40 -8.76243 115.17865 3018 ft 230 kts 270°
2026-05-04 00:40 -8.76199 115.16313 3008 ft 212 kts 270°
2026-05-04 00:41 -8.76157 115.14857 3012 ft 202 kts 270°
2026-05-04 00:41 -8.76118 115.13445 3001 ft 198 kts 270°
2026-05-04 00:41 -8.76079 115.12054 3006 ft 198 kts 270°
2026-05-04 00:41 -8.76040 115.10673 3007 ft 199 kts 270°
2026-05-04 00:42 -8.76001 115.09268 3006 ft 199 kts 270°
2026-05-04 00:42 -8.75961 115.07884 3010 ft 199 kts 270°
2026-05-04 00:42 -8.75920 115.06486 3006 ft 199 kts 270°
2026-05-04 00:42 -8.75880 115.05094 3010 ft 199 kts 270°
2026-05-04 00:43 -8.75840 115.03701 3008 ft 197 kts 270°
2026-05-04 00:43 -8.75799 115.02298 3047 ft 207 kts 270°
2026-05-04 00:43 -8.75757 115.00780 3543 ft 225 kts 270°
2026-05-04 00:43 -8.75710 114.99161 4169 ft 234 kts 271°
2026-05-04 00:44 -8.75666 114.97499 4701 ft 240 kts 270°
2026-05-04 00:44 -8.75618 114.95793 5177 ft 244 kts 271°
2026-05-04 00:44 -8.75442 114.94079 5348 ft 247 kts 285°
2026-05-04 00:44 -8.74594 114.92591 5216 ft 244 kts 320°
2026-05-04 00:45 -8.73123 114.91867 5207 ft 238 kts 354°
2026-05-04 00:45 -8.71554 114.92079 5213 ft 223 kts 31°
2026-05-04 00:45 -8.70520 114.93173 5207 ft 214 kts 67°
2026-05-04 00:45 -8.70394 114.94625 5207 ft 210 kts 103°
2026-05-04 00:46 -8.71020 114.95927 5202 ft 210 kts 129°
2026-05-04 00:46 -8.72201 114.96788 5205 ft 213 kts 158°
2026-05-04 00:46 -8.73651 114.97162 5204 ft 215 kts 165°
2026-05-04 00:46 -8.75036 114.97692 5184 ft 212 kts 144°
2026-05-04 00:47 -8.76003 114.98755 5138 ft 201 kts 117°
2026-05-04 00:47 -8.76274 115.00088 5079 ft 192 kts 88°
2026-05-04 00:47 -8.76075 115.01392 4958 ft 181 kts 78°
2026-05-04 00:47 -8.75690 115.02566 4766 ft 177 kts 69°
2026-05-04 00:48 -8.75186 115.03690 4552 ft 174 kts 70°
2026-05-04 00:48 -8.74922 115.04873 4315 ft 172 kts 85°
2026-05-04 00:48 -8.74945 115.06068 3937 ft 168 kts 98°
2026-05-04 00:48 -8.75061 115.07237 3343 ft 165 kts 93°
2026-05-04 00:49 -8.75036 115.08384 2658 ft 164 kts 89°
2026-05-04 00:49 -8.75039 115.09529 1930 ft 161 kts 91°
2026-05-04 00:49 -8.75013 115.10660 1234 ft 162 kts 91°
2026-05-04 00:49 -8.75030 115.11801 758 ft 163 kts 90°
2026-05-04 00:50 -8.75011 115.12960 456 ft 166 kts 89°
2026-05-04 00:50 -8.74974 115.14119 298 ft 165 kts 85°
2026-05-04 00:50 -8.74872 115.15266 200 ft 164 kts 88°
2026-05-04 00:50 -8.74914 115.16424 99 ft 162 kts 85°
2026-05-04 00:51 -8.74863 115.17556 206 ft 162 kts 81°
2026-05-04 00:51 -8.74659 115.18702 330 ft 178 kts 78°
2026-05-04 00:51 -8.74423 115.20046 562 ft 204 kts 82°
2026-05-04 00:51 -8.74385 115.21518 981 ft 211 kts 91°
2026-05-04 00:52 -8.74420 115.22989 1380 ft 212 kts 92°
2026-05-04 00:52 -8.74510 115.24479 1806 ft 212 kts 101°
2026-05-04 00:52 -8.75089 115.25834 2227 ft 212 kts 129°
2026-05-04 00:52 -8.76300 115.26647 2661 ft 215 kts 166°
2026-05-04 00:53 -8.77740 115.26425 3106 ft 221 kts 213°
2026-05-04 00:53 -8.78586 115.25138 3521 ft 229 kts 262°
2026-05-04 00:53 -8.78225 115.23595 3921 ft 231 kts 311°
2026-05-04 00:53 -8.76880 115.22799 4290 ft 227 kts 359°
2026-05-04 00:54 -8.75445 115.23227 4615 ft 220 kts 46°
2026-05-04 00:54 -8.74525 115.24461 4973 ft 223 kts 54°
2026-05-04 00:54 -8.73359 115.25504 5235 ft 233 kts 28°
2026-05-04 00:54 -8.71765 115.25832 5206 ft 238 kts 356°
2026-05-04 00:55 -8.70226 115.25257 5199 ft 241 kts 323°
2026-05-04 00:55 -8.69192 115.23925 5195 ft 242 kts 290°
2026-05-04 00:55 -8.68896 115.22258 5205 ft 243 kts 271°
2026-05-04 00:55 -8.68978 115.20545 5194 ft 243 kts 261°
2026-05-04 00:56 -8.69225 115.18844 5195 ft 245 kts 259°
2026-05-04 00:56 -8.69542 115.17158 5197 ft 245 kts 257°
2026-05-04 00:56 -8.69904 115.15490 5194 ft 245 kts 256°
2026-05-04 00:56 -8.70291 115.13814 5196 ft 245 kts 255°
2026-05-04 00:57 -8.70687 115.12130 5201 ft 245 kts 255°
2026-05-04 00:57 -8.71078 115.10477 5182 ft 245 kts 255°
2026-05-04 00:57 -8.71472 115.08806 5180 ft 243 kts 255°
2026-05-04 00:57 -8.71727 115.07701 5187 ft 244 kts 255°
2026-05-04 00:58 -8.72112 115.06023 5160 ft 245 kts 255°
2026-05-04 00:58 -8.72503 115.04352 5086 ft 243 kts 255°
2026-05-04 00:58 -8.72890 115.02689 5101 ft 244 kts 255°
2026-05-04 00:58 -8.73294 115.01022 4959 ft 240 kts 254°
2026-05-04 00:59 -8.73701 114.99412 4772 ft 231 kts 253°
2026-05-04 00:59 -8.74094 114.97872 4615 ft 221 kts 256°
2026-05-04 00:59 -8.74418 114.96411 4438 ft 209 kts 257°
2026-05-04 00:59 -8.74701 114.94995 4314 ft 202 kts 256°
2026-05-04 01:00 -8.75274 114.93779 4129 ft 189 kts 214°
2026-05-04 01:00 -8.76440 114.93410 4065 ft 176 kts 170°
2026-05-04 01:00 -8.77577 114.93863 4073 ft 179 kts 140°
2026-05-04 01:00 -8.78308 114.94837 3758 ft 179 kts 105°
2026-05-04 01:01 -8.78164 114.96069 3335 ft 184 kts 65°
2026-05-04 01:01 -8.77422 114.97132 2914 ft 186 kts 51°
2026-05-04 01:01 -8.76561 114.98087 2484 ft 177 kts 52°
2026-05-04 01:01 -8.75889 114.99069 2120 ft 161 kts 67°
2026-05-04 01:02 -8.75615 115.00144 1858 ft 158 kts 83°
2026-05-04 01:02 -8.75433 115.01229 1704 ft 158 kts 82°
2026-05-04 01:02 -8.75284 115.02322 1565 ft 157 kts 85°
2026-05-04 01:02 -8.75194 115.03430 1490 ft 156 kts 88°
2026-05-04 01:03 -8.75148 115.04526 1314 ft 156 kts 89°
2026-05-04 01:03 -8.75123 115.05610 1131 ft 156 kts 91°
2026-05-04 01:03 -8.75126 115.06704 953 ft 155 kts 88°
2026-05-04 01:03 -8.75100 115.07803 782 ft 155 kts 88°
2026-05-04 01:04 -8.75125 115.08895 618 ft 156 kts 89°
2026-05-04 01:04 -8.75086 115.09993 463 ft 156 kts 88°
2026-05-04 01:04 -8.75052 115.11085 313 ft 155 kts 88°
2026-05-04 01:04 -8.75014 115.12155 249 ft 149 kts 85°
2026-05-04 01:05 -8.74980 115.13182 170 ft 147 kts 88°
2026-05-04 01:05 -8.74937 115.14221 126 ft 147 kts 87°
2026-05-04 01:05 -8.74908 115.15249 70 ft 146 kts 87°
2026-05-04 01:05 -8.74865 115.16239 37 ft 123 kts 82°
2026-05-04 01:06 -8.74836 115.16906 37 ft 81 kts 89°
2026-05-04 01:06 -8.74818 115.17359 37 ft 47 kts 87°
2026-05-04 01:06 -8.74807 115.17544 38 ft 15 kts 87°
2026-05-04 01:06 -8.74804 115.17639 38 ft 13 kts 87°
2026-05-04 01:07 -8.74800 115.17719 37 ft 10 kts 87°
2026-05-04 01:07 -8.74775 115.17776 36 ft 8 kts 34°
2026-05-04 01:07 -8.74731 115.17788 39 ft 5 kts
2026-05-04 01:07 -8.74702 115.17790 41 ft 3 kts
2026-05-04 01:08 -8.74681 115.17789 38 ft 3 kts 354°
2026-05-04 01:08 -8.74658 115.17786 40 ft 4 kts 351°
2026-05-04 01:08 -8.74640 115.17770 42 ft 3 kts 291°
2026-05-04 01:08 -8.74637 115.17740 42 ft 6 kts 274°
2026-05-04 01:09 -8.74636 115.17721 42 ft 2 kts 272°
2026-05-04 01:09 -8.74636 115.17695 42 ft 6 kts 269°
2026-05-04 01:09 -8.74612 115.17667 42 ft 6 kts 344°
2026-05-04 01:09 -8.74570 115.17665 42 ft 7 kts 358°
2026-05-04 01:10 -8.74522 115.17663 42 ft 4 kts 357°
2026-05-04 01:10 -8.74521 115.17663 42 ft 0 kts 357°